DLH1428 EDDF-LBSF

Flight info

Callsign DLH1428
Flight time 1h 49m
Altitude 31000
Route CINDY8S/18 CINDY Z74 HAREM DCT ASLEP DCT TAKUT DCT DINKU L603 BESNI L605 ESEGA/N0448F350 DCT VELOM DCT GOTAR DCT BABIT DCT RAVAK DCT NISVA
Aircraft A321/M-SDE3FGHIRWY/LB1

Departure

Time 2026-05-04 14:52
Airport Frankfurt Main Airport (EDDF)

Arrival

Time 2026-05-04 16:41
Airport Sofia Airport (LBSF)
Time Latitude Longitude Altitude Speed Heading
2026-05-04 14:00 50.04850 8.56952 356 ft 0 kts 295°
2026-05-04 14:36 50.04849 8.56958 356 ft 2 kts 294°
2026-05-04 14:36 50.04841 8.56985 359 ft 3 kts 288°
2026-05-04 14:36 50.04836 8.57015 357 ft 3 kts 276°
2026-05-04 14:36 50.04836 8.57045 361 ft 3 kts 253°
2026-05-04 14:37 50.04843 8.57068 360 ft 2 kts 211°
2026-05-04 14:37 50.04847 8.57072 364 ft 0 kts 204°
2026-05-04 14:42 50.04797 8.57036 358 ft 11 kts 205°
2026-05-04 14:42 50.04724 8.56983 361 ft 12 kts 205°
2026-05-04 14:42 50.04638 8.56924 361 ft 14 kts 200°
2026-05-04 14:43 50.04558 8.56894 360 ft 8 kts 194°
2026-05-04 14:43 50.04495 8.56868 359 ft 10 kts 200°
2026-05-04 14:43 50.04440 8.56772 361 ft 14 kts 244°
2026-05-04 14:43 50.04400 8.56610 362 ft 17 kts 249°
2026-05-04 14:44 50.04356 8.56427 356 ft 19 kts 249°
2026-05-04 14:44 50.04303 8.56205 358 ft 25 kts 250°
2026-05-04 14:44 50.04250 8.55984 362 ft 20 kts 250°
2026-05-04 14:44 50.04200 8.55772 353 ft 21 kts 249°
2026-05-04 14:45 50.04149 8.55558 356 ft 21 kts 249°
2026-05-04 14:45 50.04097 8.55342 357 ft 21 kts 251°
2026-05-04 14:45 50.04047 8.55132 357 ft 21 kts 249°
2026-05-04 14:45 50.03995 8.54918 360 ft 22 kts 250°
2026-05-04 14:46 50.03943 8.54697 352 ft 18 kts 250°
2026-05-04 14:46 50.03897 8.54505 353 ft 20 kts 249°
2026-05-04 14:46 50.03857 8.54362 351 ft 14 kts 238°
2026-05-04 14:46 50.03804 8.54233 351 ft 15 kts 242°
2026-05-04 14:47 50.03764 8.54081 354 ft 16 kts 251°
2026-05-04 14:47 50.03732 8.53937 348 ft 14 kts 250°
2026-05-04 14:47 50.03696 8.53788 344 ft 15 kts 250°
2026-05-04 14:47 50.03657 8.53625 345 ft 17 kts 248°
2026-05-04 14:48 50.03612 8.53449 338 ft 18 kts 250°
2026-05-04 14:48 50.03566 8.53259 336 ft 19 kts 249°
2026-05-04 14:48 50.03526 8.53090 335 ft 15 kts 250°
2026-05-04 14:48 50.03487 8.52929 335 ft 16 kts 250°
2026-05-04 14:49 50.03454 8.52809 333 ft 9 kts 247°
2026-05-04 14:49 50.03436 8.52738 333 ft 0 kts 249°
2026-05-04 14:49 50.03433 8.52728 331 ft 2 kts 249°
2026-05-04 14:49 50.03425 8.52694 334 ft 4 kts 250°
2026-05-04 14:50 50.03412 8.52642 334 ft 6 kts 249°
2026-05-04 14:50 50.03383 8.52597 334 ft 6 kts 200°
2026-05-04 14:50 50.03375 8.52596 334 ft 0 kts 186°
2026-05-04 14:51 50.03259 8.52591 335 ft 48 kts 180°
2026-05-04 14:52 50.02707 8.52599 336 ft 112 kts 179°
2026-05-04 14:52 50.01743 8.52609 332 ft 163 kts 180°
2026-05-04 14:52 50.00492 8.52620 590 ft 184 kts 180°
2026-05-04 14:52 49.99207 8.52634 1267 ft 183 kts 184°
2026-05-04 14:53 49.97933 8.52656 1990 ft 184 kts 180°
2026-05-04 14:53 49.96685 8.53306 2338 ft 203 kts 148°
2026-05-04 14:53 49.95746 8.55055 2479 ft 227 kts 120°
2026-05-04 14:53 49.94961 8.57282 2799 ft 240 kts 120°
2026-05-04 14:54 49.94228 8.59626 3473 ft 242 kts 106°
2026-05-04 14:54 49.93967 8.62314 3885 ft 260 kts 93°
2026-05-04 14:54 49.93854 8.65183 4310 ft 275 kts 93°
2026-05-04 14:54 49.93564 8.68139 4936 ft 280 kts 111°
2026-05-04 14:55 49.92567 8.70688 5682 ft 275 kts 136°
2026-05-04 14:55 49.91089 8.72501 6552 ft 269 kts 147°
2026-05-04 14:55 49.89571 8.74190 7279 ft 270 kts 144°
2026-05-04 14:55 49.88233 8.76265 7947 ft 276 kts 130°
2026-05-04 14:56 49.87222 8.78825 8651 ft 279 kts 122°
2026-05-04 14:56 49.86277 8.81468 9347 ft 281 kts 123°
2026-05-04 14:56 49.85318 8.84122 10028 ft 283 kts 123°
2026-05-04 14:56 49.84351 8.86787 10593 ft 289 kts 123°
2026-05-04 14:57 49.83328 8.89584 10710 ft 310 kts 123°
2026-05-04 14:57 49.82227 8.92595 10857 ft 329 kts 123°
2026-05-04 14:57 49.81069 8.95769 10971 ft 346 kts 123°
2026-05-04 14:57 49.79880 8.99035 11313 ft 356 kts 122°
2026-05-04 14:58 49.78658 9.02397 11837 ft 361 kts 122°
2026-05-04 14:58 49.77419 9.05809 12377 ft 365 kts 122°
2026-05-04 14:58 49.76281 9.09342 12925 ft 370 kts 113°
2026-05-04 14:58 49.75555 9.13192 13448 ft 376 kts 106°
2026-05-04 14:59 49.74761 9.17048 13941 ft 377 kts 116°
2026-05-04 14:59 49.73499 9.20609 14402 ft 377 kts 127°
2026-05-04 14:59 49.70203 9.26977 15312 ft 386 kts 126°
2026-05-04 15:00 49.68771 9.30528 15761 ft 391 kts 124°
2026-05-04 15:00 49.67355 9.34132 16228 ft 394 kts 124°
2026-05-04 15:00 49.65934 9.37763 16703 ft 397 kts 124°
2026-05-04 15:01 49.63081 9.45079 17552 ft 403 kts 124°
2026-05-04 15:01 49.61603 9.48773 17958 ft 406 kts 125°
2026-05-04 15:01 49.60078 9.52455 18339 ft 410 kts 126°
2026-05-04 15:01 49.58514 9.56161 18700 ft 412 kts 126°
2026-05-04 15:02 49.56940 9.59859 19063 ft 414 kts 127°
2026-05-04 15:02 49.55351 9.63591 19419 ft 417 kts 127°
2026-05-04 15:02 49.53761 9.67335 19792 ft 419 kts 127°
2026-05-04 15:02 49.52165 9.71105 20168 ft 421 kts 127°
2026-05-04 15:03 49.50564 9.74898 20538 ft 423 kts 126°
2026-05-04 15:03 49.48953 9.78721 20916 ft 426 kts 126°
2026-05-04 15:03 49.47346 9.82548 21291 ft 427 kts 126°
2026-05-04 15:03 49.45729 9.86402 21665 ft 429 kts 126°
2026-05-04 15:04 49.44104 9.90266 21975 ft 432 kts 126°
2026-05-04 15:04 49.42464 9.94150 22326 ft 434 kts 126°
2026-05-04 15:04 49.40813 9.98049 22668 ft 436 kts 127°
2026-05-04 15:04 49.39146 10.01972 22996 ft 439 kts 127°
2026-05-04 15:05 49.37493 10.05858 23344 ft 441 kts 127°
2026-05-04 15:05 49.35811 10.09816 23656 ft 443 kts 127°
2026-05-04 15:05 49.34125 10.13781 23943 ft 445 kts 127°
2026-05-04 15:05 49.32427 10.17762 24224 ft 447 kts 127°
2026-05-04 15:06 49.30719 10.21752 24502 ft 448 kts 127°
2026-05-04 15:06 49.28992 10.25777 24778 ft 451 kts 127°
2026-05-04 15:06 49.27262 10.29798 25020 ft 453 kts 127°
2026-05-04 15:07 49.23703 10.37816 25533 ft 455 kts 132°
2026-05-04 15:07 49.21564 10.41358 25810 ft 453 kts 139°
2026-05-04 15:07 49.19304 10.44721 26087 ft 455 kts 139°
2026-05-04 15:07 49.17028 10.48105 26363 ft 457 kts 139°
2026-05-04 15:08 49.14775 10.51450 26642 ft 459 kts 139°
2026-05-04 15:08 49.12479 10.54853 26914 ft 460 kts 139°
2026-05-04 15:08 49.10172 10.58272 27167 ft 462 kts 139°
2026-05-04 15:08 49.07867 10.61687 27428 ft 464 kts 139°
2026-05-04 15:09 49.05537 10.65134 27630 ft 466 kts 139°
2026-05-04 15:09 49.03200 10.68586 27817 ft 468 kts 139°
2026-05-04 15:09 49.00858 10.72041 28024 ft 470 kts 139°
2026-05-04 15:10 48.96164 10.78929 28541 ft 470 kts 139°
2026-05-04 15:10 48.93805 10.82377 28842 ft 469 kts 139°
2026-05-04 15:10 48.89098 10.89254 29426 ft 468 kts 139°
2026-05-04 15:11 48.86722 10.92730 29707 ft 467 kts 139°
2026-05-04 15:11 48.84410 10.96117 29996 ft 467 kts 139°
2026-05-04 15:11 48.82108 10.99483 30235 ft 466 kts 139°
2026-05-04 15:11 48.79763 11.02900 30494 ft 466 kts 139°
2026-05-04 15:12 48.77421 11.06306 30785 ft 465 kts 139°
2026-05-04 15:12 48.75091 11.09695 31123 ft 463 kts 139°
2026-05-04 15:12 48.72770 11.13064 31438 ft 460 kts 139°
2026-05-04 15:12 48.70484 11.16366 31747 ft 458 kts 139°
2026-05-04 15:13 48.68174 11.19686 32044 ft 457 kts 139°
2026-05-04 15:13 48.65873 11.22987 32304 ft 456 kts 139°
2026-05-04 15:13 48.63573 11.26284 32572 ft 455 kts 139°
2026-05-04 15:13 48.61498 11.29899 32849 ft 458 kts 123°
2026-05-04 15:14 48.60303 11.34357 33069 ft 463 kts 104°
2026-05-04 15:14 48.59816 11.39197 33196 ft 467 kts 98°
2026-05-04 15:14 48.59452 11.44101 33343 ft 469 kts 98°
2026-05-04 15:14 48.59090 11.48958 33522 ft 470 kts 99°
2026-05-04 15:15 48.58428 11.53788 33717 ft 467 kts 107°
2026-05-04 15:15 48.57538 11.58503 33937 ft 466 kts 109°
2026-05-04 15:15 48.56683 11.63244 34128 ft 467 kts 107°
2026-05-04 15:16 48.55102 11.72751 34509 ft 466 kts 105°
2026-05-04 15:16 48.54380 11.77467 34683 ft 466 kts 104°
2026-05-04 15:16 48.52992 11.87059 34943 ft 467 kts 104°
2026-05-04 15:17 48.52309 11.91851 34948 ft 467 kts 104°
2026-05-04 15:17 48.50221 12.06172 34946 ft 467 kts 104°
2026-05-04 15:18 48.48781 12.15743 34943 ft 467 kts 105°
2026-05-04 15:19 48.46605 12.30074 34937 ft 467 kts 105°
2026-05-04 15:19 48.44437 12.44334 34934 ft 467 kts 105°
2026-05-04 15:20 48.42982 12.53876 34934 ft 467 kts 105°
2026-05-04 15:20 48.41520 12.63358 34940 ft 467 kts 105°
2026-05-04 15:21 48.40031 12.72901 34938 ft 467 kts 105°
2026-05-04 15:22 48.37334 12.85237 34936 ft 465 kts 111°
2026-05-04 15:22 48.34126 12.99019 34934 ft 465 kts 111°
2026-05-04 15:23 48.31982 13.08195 34929 ft 465 kts 111°
2026-05-04 15:23 48.29839 13.17301 34934 ft 464 kts 111°
2026-05-04 15:24 48.25525 13.35577 34933 ft 464 kts 111°
2026-05-04 15:25 48.23347 13.44759 34931 ft 465 kts 111°
2026-05-04 15:26 48.18885 13.57490 34928 ft 461 kts 125°
2026-05-04 15:26 48.13693 13.69568 34928 ft 461 kts 125°
2026-05-04 15:27 48.08475 13.81712 34923 ft 462 kts 125°
2026-05-04 15:28 48.03238 13.93808 34929 ft 463 kts 125°
2026-05-04 15:29 47.97989 14.05881 34933 ft 463 kts 125°
2026-05-04 15:30 47.85648 14.34060 34948 ft 464 kts 125°
2026-05-04 15:31 47.80325 14.46119 34954 ft 465 kts 125°
2026-05-04 15:32 47.71420 14.66182 34964 ft 467 kts 125°
2026-05-04 15:34 47.62450 14.86250 34986 ft 466 kts 124°
2026-05-04 15:34 47.57045 14.98269 34995 ft 467 kts 125°
2026-05-04 15:35 47.51666 15.10199 35005 ft 467 kts 125°
2026-05-04 15:36 47.46236 15.22156 35011 ft 467 kts 125°
2026-05-04 15:36 47.42605 15.30132 35006 ft 468 kts 125°
2026-05-04 15:37 47.38968 15.38100 35001 ft 467 kts 125°
2026-05-04 15:37 47.35338 15.46035 35018 ft 467 kts 125°
2026-05-04 15:38 47.31694 15.53970 35018 ft 467 kts 125°
2026-05-04 15:38 47.28039 15.61898 35017 ft 467 kts 125°
2026-05-04 15:39 47.24382 15.69812 35014 ft 467 kts 125°
2026-05-04 15:40 47.18911 15.81623 35014 ft 467 kts 125°
2026-05-04 15:40 47.15238 15.89510 35010 ft 468 kts 124°
2026-05-04 15:41 47.11558 15.97399 35013 ft 468 kts 124°
2026-05-04 15:41 47.07864 16.05280 35008 ft 468 kts 125°
2026-05-04 15:42 47.04170 16.13163 35013 ft 469 kts 125°
2026-05-04 15:42 47.00466 16.21033 35019 ft 469 kts 124°
2026-05-04 15:43 46.97232 16.29247 35027 ft 469 kts 119°
2026-05-04 15:43 46.94089 16.37625 35034 ft 469 kts 119°
2026-05-04 15:44 46.90935 16.46013 35029 ft 469 kts 119°
2026-05-04 15:44 46.87773 16.54364 35029 ft 469 kts 118°
2026-05-04 15:45 46.84601 16.62699 35035 ft 469 kts 118°
2026-05-04 15:45 46.81437 16.70985 35035 ft 469 kts 118°
2026-05-04 15:46 46.78254 16.79296 35037 ft 469 kts 119°
2026-05-04 15:46 46.75065 16.87603 35041 ft 469 kts 119°
2026-05-04 15:47 46.71862 16.95910 35049 ft 468 kts 118°
2026-05-04 15:47 46.68694 17.04120 35046 ft 468 kts 118°
2026-05-04 15:48 46.65506 17.12389 35050 ft 468 kts 118°
2026-05-04 15:48 46.60702 17.24761 35051 ft 468 kts 119°
2026-05-04 15:49 46.57491 17.32997 35054 ft 467 kts 119°
2026-05-04 15:49 46.54280 17.41202 35060 ft 467 kts 119°
2026-05-04 15:50 46.51076 17.49348 35063 ft 467 kts 119°
2026-05-04 15:50 46.47859 17.57524 35066 ft 467 kts 118°
2026-05-04 15:51 46.44636 17.65700 35075 ft 466 kts 119°
2026-05-04 15:51 46.41410 17.73854 35068 ft 465 kts 119°
2026-05-04 15:52 46.38182 17.81986 35067 ft 465 kts 119°
2026-05-04 15:52 46.34942 17.90113 35065 ft 466 kts 119°
2026-05-04 15:53 46.31719 17.98179 35075 ft 465 kts 119°
2026-05-04 15:53 46.28471 18.06276 35077 ft 465 kts 119°
2026-05-04 15:54 46.25217 18.14372 35077 ft 465 kts 119°
2026-05-04 15:54 46.21963 18.22444 35085 ft 465 kts 119°
2026-05-04 15:55 46.18710 18.30507 35083 ft 464 kts 119°
2026-05-04 15:55 46.15453 18.38552 35084 ft 464 kts 119°
2026-05-04 15:56 46.12181 18.46598 35078 ft 464 kts 119°
2026-05-04 15:56 46.08929 18.54567 35076 ft 464 kts 119°
2026-05-04 15:57 46.05639 18.62603 35087 ft 464 kts 119°
2026-05-04 15:57 46.02351 18.70615 35089 ft 465 kts 119°
2026-05-04 15:58 45.99061 18.78614 35089 ft 465 kts 119°
2026-05-04 15:58 45.95757 18.86625 35091 ft 465 kts 119°
2026-05-04 15:59 45.92035 18.94164 35094 ft 467 kts 133°
2026-05-04 15:59 45.87202 19.00447 35093 ft 468 kts 137°
2026-05-04 16:00 45.82297 19.06628 35093 ft 468 kts 137°
2026-05-04 16:00 45.77407 19.12797 35093 ft 469 kts 137°
2026-05-04 16:01 45.72505 19.18968 35103 ft 469 kts 137°
2026-05-04 16:01 45.67628 19.25082 35095 ft 469 kts 137°
2026-05-04 16:02 45.62700 19.31243 35096 ft 469 kts 137°
2026-05-04 16:03 45.55343 19.40402 35095 ft 470 kts 137°
2026-05-04 16:03 45.50419 19.46544 35095 ft 470 kts 137°
2026-05-04 16:04 45.45485 19.52672 35095 ft 470 kts 137°
2026-05-04 16:04 45.38900 19.60806 35099 ft 470 kts 137°
2026-05-04 16:05 45.33155 19.67890 35103 ft 470 kts 137°
2026-05-04 16:06 45.26557 19.76014 35113 ft 471 kts 137°
2026-05-04 16:07 45.16615 19.88178 35113 ft 471 kts 137°
2026-05-04 16:08 45.06702 20.00260 35118 ft 472 kts 137°
2026-05-04 16:09 44.94225 20.15395 35104 ft 472 kts 137°
2026-05-04 16:10 44.84248 20.27407 35114 ft 473 kts 137°
2026-05-04 16:11 44.74212 20.39454 35105 ft 474 kts 137°
2026-05-04 16:12 44.59139 20.57432 35111 ft 475 kts 137°
2026-05-04 16:13 44.49033 20.69423 35125 ft 475 kts 137°
2026-05-04 16:14 44.38957 20.81317 35115 ft 476 kts 137°
2026-05-04 16:16 44.26313 20.96168 35134 ft 477 kts 137°
2026-05-04 16:17 44.13581 21.11019 35130 ft 476 kts 137°
2026-05-04 16:18 44.03446 21.22799 35141 ft 474 kts 137°
2026-05-04 16:19 43.95857 21.31587 34507 ft 468 kts 137°
2026-05-04 16:19 43.90858 21.37349 33545 ft 473 kts 137°
2026-05-04 16:20 43.83224 21.46126 32063 ft 474 kts 137°
2026-05-04 16:20 43.78172 21.51911 31106 ft 474 kts 137°
2026-05-04 16:21 43.70531 21.60653 29640 ft 475 kts 137°
2026-05-04 16:22 43.66034 21.67190 28596 ft 471 kts 128°
2026-05-04 16:22 43.59787 21.77623 27071 ft 465 kts 128°
2026-05-04 16:23 43.53638 21.87831 25628 ft 455 kts 129°
2026-05-04 16:24 43.45676 22.01012 23824 ft 442 kts 129°
2026-05-04 16:25 43.41756 22.07467 22824 ft 436 kts 129°
2026-05-04 16:26 43.34098 22.20019 20849 ft 420 kts 128°
2026-05-04 16:26 43.28540 22.29105 19441 ft 411 kts 128°
2026-05-04 16:27 43.24889 22.35066 18558 ft 405 kts 127°
2026-05-04 16:28 43.19523 22.43821 17056 ft 395 kts 127°
2026-05-04 16:28 43.14286 22.52316 15613 ft 383 kts 127°
2026-05-04 16:29 43.07540 22.63228 13771 ft 368 kts 127°
2026-05-04 16:30 43.02613 22.71166 12276 ft 363 kts 127°
2026-05-04 16:31 42.99349 22.76418 11303 ft 361 kts 127°
2026-05-04 16:31 42.94105 22.83471 9902 ft 348 kts 141°
2026-05-04 16:32 42.88410 22.89052 8647 ft 324 kts 141°
2026-05-04 16:33 42.84911 22.92530 8329 ft 296 kts 141°
2026-05-04 16:33 42.81683 22.95762 8029 ft 288 kts 140°
2026-05-04 16:34 42.78498 22.98947 7355 ft 274 kts 140°
2026-05-04 16:34 42.76979 23.00464 7000 ft 266 kts 141°
2026-05-04 16:35 42.72977 23.04499 6653 ft 211 kts 133°
2026-05-04 16:35 42.71533 23.09302 6153 ft 179 kts 90°
2026-05-04 16:36 42.71437 23.11001 5926 ft 179 kts 90°
2026-05-04 16:36 42.71245 23.14356 5437 ft 177 kts 91°
2026-05-04 16:37 42.71053 23.17689 4978 ft 176 kts 89°
2026-05-04 16:37 42.70958 23.19338 4746 ft 173 kts 89°
2026-05-04 16:37 42.70767 23.22650 4272 ft 174 kts 91°
2026-05-04 16:38 42.70577 23.25918 3791 ft 167 kts 92°
2026-05-04 16:39 42.70318 23.30344 3149 ft 150 kts 92°
2026-05-04 16:39 42.70155 23.33126 2770 ft 149 kts 92°
2026-05-04 16:40 42.69990 23.35923 2389 ft 146 kts 93°
2026-05-04 16:40 42.69826 23.38686 1984 ft 145 kts 94°
2026-05-04 16:41 42.69670 23.41292 1745 ft 112 kts 94°
2026-05-04 16:41 42.69522 23.42667 1748 ft 11 kts 124°
2026-05-04 16:42 42.69482 23.42741 1742 ft 5 kts 130°
2026-05-04 16:43 42.69407 23.42709 1743 ft 10 kts 244°
2026-05-04 16:43 42.69418 23.42417 1749 ft 17 kts 275°
2026-05-04 16:43 42.69429 23.42249 1751 ft 19 kts 275°
2026-05-04 16:44 42.69476 23.41451 1750 ft 22 kts 275°
2026-05-04 16:45 42.69371 23.41189 1750 ft 18 kts 192°
2026-05-04 16:46 42.69058 23.41219 1742 ft 6 kts 162°
2026-05-04 16:46 42.69028 23.41282 1750 ft 2 kts 77°
2026-05-04 16:47 42.69034 23.41313 1742 ft 1 kts 73°
2026-05-04 16:47 42.69035 23.41318 1743 ft 0 kts 72°